Flag for Slovakia Weather past 2 weeks in Prešov, Slovakia

Now
45 °F

Scattered clouds.


Feels Like: 45 °F
Forecast: 33 / 42 °F
Wind: 2 mph from North

Location: Kosice - Barca

Current Time: Dec 20, 2014 at 12:57:14 PM

Latest Report: Dec 20, 2014 at 12:30 PM


Visibility: 5 mi

Pressure: 30.01 "Hg

Humidity: 93%

Dew point: 43 °F

Location of PrešovLocation

Historic Weather in Prešov — Graph

°F

Prešov temperature yesterday

Maximum temperature yesterday: 45 °F (at 6:00 PM)
Minimum temperature yesterday: 39 °F (at 12:00 AM)
Average temperature yesterday: 41 °F

Past Weeks' High & Low Weather Summary

 TemperatureHumidityPressure
High48 °F (Dec 20, 10:30 AM)100% (Dec 11, 7:30 AM)30.21 "Hg (Dec 11, 7:30 AM)
Low28 °F (Dec 11, 6:00 AM)65% (Dec 9, 5:00 PM)29.80 "Hg (Dec 17, 2:30 AM)
Average38 °F88%30.05 "Hg
* Reported Dec 5 12:00 Noon — Dec 20 12:00 Noon, Prešov, Weather by CustomWeather, © 2014

Note: Actual official high and low records may vary slightly from our data, if they occured in-between our weather recording intervals... More about our weather records

Advertising

Prešov weather history for previous 24 hours

 ConditionsComfort  
Time TempWeatherWind HumidityBarometerVisibility
12:00 PM
Dec 20
45 °FScattered clouds.5 mph93%30.04 "Hg5 mi
11:30 AM46 °FScattered clouds.5 mph87%30.04 "Hg5 mi
11:00 AM46 °FScattered clouds.3 mph87%30.04 "Hg5 mi
10:30 AM48 °FPassing clouds.2 mph82%30.04 "Hg5 mi
10:00 AM46 °FFog.1 mph87%30.04 "Hg3 mi
9:30 AM43 °FFog.1 mph93%30.01 "Hg2 mi
9:00 AM39 °FFog.3 mph100%30.01 "Hg2 mi
8:30 AM37 °FSnow. Cloudy.3 mph100%30.01 "Hg3 mi
8:00 AM39 °FFog.2 mph100%29.98 "Hg2 mi
7:30 AM39 °FFog.3 mph100%29.98 "Hg2 mi
7:00 AM41 °FFog.6 mph100%29.98 "Hg1 mi
6:30 AM41 °FFog.7 mph100%29.98 "Hg3 mi
6:00 AM41 °FFog.2 mph100%29.95 "Hg2 mi
5:30 AM41 °FFog.5 mph100%29.95 "Hg3 mi
5:00 AM43 °FLight rain. Fog.9 mph93%29.95 "Hg2 mi
4:30 AM41 °FFog.2 mph93%29.92 "Hg2 mi
4:00 AM39 °FFog.2 mph100%29.92 "Hg2 mi
3:30 AM41 °FFog.7 mph100%29.92 "Hg2 mi
3:00 AM41 °FFog.6 mph100%29.92 "Hg2 mi
2:30 AM41 °FFog.6 mph100%29.92 "Hg2 mi
2:00 AM41 °FFog.9 mph100%29.92 "Hg1 mi
1:30 AM41 °FFog.7 mph100%29.92 "Hg1 mi
1:00 AM41 °FFog.6 mph100%29.92 "Hg1 mi
12:30 AM43 °FFog.7 mph93%29.92 "Hg1 mi
12:00 AM43 °FFog.12 mph93%29.92 "Hg1 mi
11:30 PM
Dec 19
43 °FFog.12 mph100%29.92 "Hg1 mi
11:00 PM43 °FFog.13 mph100%29.92 "Hg2 mi
10:30 PM43 °FFog.14 mph100%29.92 "Hg2 mi
10:00 PM43 °FFog.10 mph100%29.92 "Hg2 mi
9:30 PM43 °FFog.13 mph100%29.92 "Hg1 mi
9:00 PM43 °FFog.9 mph100%29.95 "Hg1 mi
8:30 PM43 °FFog.5 mph100%29.95 "Hg1 mi
8:00 PM45 °FFog.13 mph93%29.95 "Hg1 mi
7:30 PM45 °FFog.14 mph100%29.95 "Hg1 mi
7:00 PM45 °FFog.10 mph100%29.95 "Hg1 mi
6:30 PM45 °FFog.10 mph100%29.95 "Hg1 mi
6:00 PM45 °FFog.12 mph100%29.98 "Hg1 mi
5:30 PM43 °FFog.9 mph100%29.98 "Hg1 mi
5:00 PM43 °FFog.13 mph100%29.98 "Hg1 mi
4:30 PM43 °FFog.14 mph100%29.98 "Hg1 mi
4:00 PM43 °FFog.10 mph100%29.98 "Hg0 mi
3:30 PM43 °FFog.12 mph100%29.98 "Hg1 mi
3:00 PM43 °FFog.8 mph100%29.98 "Hg1 mi
2:30 PM43 °FFog.8 mph93%29.98 "Hg0 mi
2:00 PM43 °FFog.8 mph100%30.01 "Hg1 mi
1:30 PM43 °FFog.7 mph100%30.01 "Hg1 mi
1:00 PM43 °FFog.3 mph100%30.01 "Hg1 mi
12:30 PM41 °FFog.6 mph100%30.01 "Hg0 mi
12:00 PM41 °FFog.6 mph100%30.01 "Hg0 mi
Weather by CustomWeather, © 2014

See weather overviewHow to use our weather pages